Miscellaneous Local Product
Issued by NWS Hastings, NE

Home | Current Version | Previous Version | Graphics & Text | Print | Product List | Glossary On
Versions: 1 2 3 4 5 6 7 8 9 10 11 12 13 14 15 16 17 18 19 20 21 22 23 24 25 26 27 28 29 30 31 32 33 34 35 36 37 38 39 40 41 42 43 44 45 46 47 48 49 50
000
AXUS43 KGID 031702
MISGRI

GID CWA HOURLY WEATHER ROUNDUP
NATIONAL WEATHER SERVICE HASTINGS NE
1200 PM CDT MON AUG 03 2015

NOTE: "FAIR" INDICATES FEW OR NO CLOUDS BELOW 12,000 FEET WITH NO
SIGNIFICANT WEATHER AND/OR OBSTRUCTIONS TO VISIBILITY.

...SOUTH CENTRAL NEBRASKA...

CITY           SKY/WX    TMP DP  RH WIND       PRES   REMARKS
GRAND ISLAND   MOSUNNY   78  64  61 SE13      29.99F
HASTINGS       MOSUNNY   79  63  57 E12       29.99F
KEARNEY        MOSUNNY   79  63  57 E15G21    30.00F
ORD            MOSUNNY   78  61  55 E6        30.01R
YORK           MOSUNNY   75  66  73 SE10      29.98S
AURORA         PTSUNNY   76  66  72 E12       29.99S
LEXINGTON      MOSUNNY   80  64  58 E14G23    30.01F
HOLDREGE       SUNNY     78  64  63 E17       30.00F
HEBRON         MOSUNNY   79  67  66 E8        29.97F

...NEBRASKA PANHANDLE...

CITY           SKY/WX    TMP DP  RH WIND       PRES   REMARKS
CHADRON        PTSUNNY   80  61  52 SE6       30.01S
ALLIANCE       PTSUNNY   80  60  50 S14       30.04S
SCOTTSBLUFF    MOSUNNY   78  61  55 SE9       30.03S
SIDNEY         PTSUNNY   83  57  41 SE6       30.06S

...WESTERN AND NORTH CENTRAL NEBRASKA...

CITY           SKY/WX    TMP DP  RH WIND       PRES   REMARKS
VALENTINE      NOT AVBL
AINSWORTH      SUNNY     78  60  53 E6        30.05S
ONEILL         SUNNY     76  61  58 SE6       30.03S
BROKEN BOW     MOSUNNY   79  59  50 SE9       30.02S
IMPERIAL       PTSUNNY   83  61  47 E10       30.02S
NORTH PLATTE   MOSUNNY   76  65  68 SE13      30.02S
MCCOOK         MOSUNNY   84  67  56 E13       30.00S

...EASTERN NEBRASKA...

CITY           SKY/WX    TMP DP  RH WIND       PRES   REMARKS
NORFOLK        PTSUNNY   74  62  66 SE8       30.01R
SO SIOUX CITY  MOSUNNY   77  58  51 S3        30.00
TEKAMAH        PTSUNNY   75  64  68 SE6       29.98F
COLUMBUS       CLOUDY    72  61  68 CALM      30.01R
ALBION         MOSUNNY   73  60  64 SE3       30.02F
OMAHA EPPLEY   CLOUDY    77  61  57 E7        29.99S
OFFUTT AFB     CLOUDY    77  63  61 E5        29.99R
MILLARD        CLOUDY    77  62  60 E5        29.99R
LINCOLN        PTSUNNY   79  61  53 E12       29.98F
NEBRASKA CITY  PTSUNNY   74  60  60 E5        29.98R
BEATRICE       MOSUNNY   78  67  69 E7        29.97F
FALLS CITY     MOSUNNY   76  69  79 E13       29.95F

...NORTHERN KANSAS...

CITY           SKY/WX    TMP DP  RH WIND       PRES   REMARKS
GOODLAND       MOSUNNY   86  59  39 SE10      30.03S
HILL CITY      MOSUNNY   87  67  51 NE8       29.99R HX  90
NORTON         SUNNY     86  66  51 E10       29.99S
PHILLIPSBURG   SUNNY     88  70  55 E9        29.97F HAZE    HX  92
SMITH CENTER   SUNNY     81  70  69 NE12      29.98F
HAYS           MOSUNNY   88  66  48 SE8       29.96S HX  90
RUSSELL        MOSUNNY   88  68  51 VRB6      29.95R HX  91
CONCORDIA      MOSUNNY   84  72  67 N12       29.96F
SALINA         SUNNY     89  69  51 VRB5      29.94S HX  93
TOPEKA         SUNNY     88  70  55 W6        29.93F HX  93



USA.gov is the U.S. government's official web portal to all federal, state and local government web resources and services.